[[{"header":{"parameterUnit":"m.s-1","parameterCategory":1,"la1":30.2991,"la2":30.254,"lo1":-89.0895,"lo2":-89.0444,"dy":0.0017,"dx":0.0017,"nx":28,"ny":28,"refTime":"2024-04-28T03:00:00:Z","depth":0,"parameterNumber":2,"parameterNumberName":"U-component_of_WINDS"},"data":[0,0,0,0,0,0,0,0,0,0,0,0,0,0,0,0,0,0,0,0,0,0,0,0,0,0,0,0,0,0,0,0,0,0,0,0,0,0,0,0,0,0,0,0,0,0,0,0,0,0,0,0,0,0,0,0,0,0,-5.7265,-5.7266,0,-5.7367,-5.7369,-5.737,-5.7356,-5.7354,-5.7353,-5.7351,-5.7455,-5.7459,-5.7463,0,0,0,0,0,0,0,0,0,0,0,0,0,-5.7058,-5.7062,-5.7265,-5.7266,-5.7268,-5.7367,-5.7369,-5.737,-5.7356,-5.7354,-5.7352,-5.735,-5.7453,-5.7458,-5.7464,0,0,0,0,0,0,0,0,0,0,0,0,0,-5.7153,-5.7064,-5.7265,-5.7273,-5.7275,-5.7367,-5.7369,-5.737,-5.7357,-5.7354,-5.7352,-5.735,-5.7452,-5.7458,-5.7464,-5.7555,0,0,-5.7484,-5.7487,0,0,0,0,0,0,0,0,-5.7148,-5.7161,-5.727,-5.7272,-5.7275,-5.7346,-5.7334,-5.7432,-5.7358,-5.7326,-5.7351,-5.7348,-5.7421,-5.7429,-5.7454,-5.7559,-5.7564,-5.7485,-5.7489,-5.7491,-5.7493,0,0,0,0,0,0,0,-5.7141,-5.7156,-5.7305,-5.7272,-5.7275,-5.7272,-5.7282,-5.7352,-5.7386,-5.7328,-5.7327,-5.734,-5.7421,-5.7448,-5.7456,-5.7565,-5.7484,-5.749,-5.7494,-5.7497,-5.7751,-5.7754,0,0,0,0,0,0,-5.7133,-5.7151,-5.7302,-5.7308,-5.7204,-5.7277,-5.7289,-5.7326,-5.7385,-5.7392,-5.7342,-5.7339,-5.7438,-5.7449,-5.746,-5.7569,-5.7491,-5.7497,-5.7501,-5.7748,-5.7752,-5.7755,0,0,0,0,0,0,-5.7128,-5.7146,-5.7298,-5.723,-5.7249,-5.7284,-5.7325,-5.7329,-5.7356,-5.7396,-5.7401,-5.7363,-5.7437,-5.7451,-5.7532,-5.7573,-5.75,-5.7506,-5.7745,-5.775,-5.7754,-5.7789,0,0,0,0,0,0,-5.7122,-5.7145,-5.7179,-5.7231,-5.7252,-5.7367,-5.7327,-5.7333,-5.7367,-5.7364,-5.7417,-5.7423,-5.7436,-5.7522,-5.7538,-5.758,-5.7511,-5.7741,-5.7747,-5.7752,-5.7784,-5.7794,-5.7802,0,0,0,0,0,-5.7115,-5.7184,-5.7181,-5.7199,-5.7296,-5.737,-5.7382,-5.7396,-5.7371,-5.7405,-5.7431,-5.7421,-5.7567,-5.753,-5.7548,-5.7593,-5.7739,-5.7745,-5.7752,-5.778,-5.7792,-5.7802,0,0,0,0,0,0,-5.7135,-5.7191,-5.7188,-5.7276,-5.7318,-5.7367,-5.7411,-5.7408,-5.7458,-5.7453,-5.7468,-5.748,-5.7561,-5.7586,-5.7544,-5.7685,-5.7649,-5.766,-5.7665,-5.7676,-5.7685,-5.7676,-5.7517,0,0,0,0,0,-5.715,-5.7206,-5.7252,-5.7325,-5.7347,-5.7376,-5.7408,-5.7416,-5.746,-5.7478,-5.7509,-5.7553,-5.7608,-5.7644,-5.7698,-5.7789,-5.78,-5.7829,-5.7838,-5.7846,-5.7853,-5.7904,-5.7917,-5.7776,-5.7776,-5.7776,0,0,-5.7181,-5.7219,-5.7252,-5.733,-5.7364,-5.7421,-5.7391,-5.7452,-5.7494,-5.7487,-5.7564,-5.759,-5.764,-5.7726,-5.7766,-5.7749,-5.7895,-5.7854,-5.7859,-5.7863,-5.7912,-5.7925,-5.7937,-5.7781,-5.778,-5.7779,0,0,-5.7265,-5.73,-5.7365,-5.74,-5.7452,-5.7472,-5.7488,-5.7539,-5.7555,-5.7634,-5.763,-5.7681,-5.7777,-5.7812,-5.7843,-5.7945,-5.7938,-5.7963,-5.8008,-5.8058,-5.8069,-5.8078,-5.8114,-5.8126,-5.7971,-5.7971,-5.7971,0,-5.7296,-5.7382,-5.7398,-5.7461,-5.7495,-5.7493,-5.7559,-5.7593,-5.766,-5.7683,-5.7665,-5.7785,-5.7819,-5.7913,-5.7939,-5.7964,-5.7983,-5.7955,-5.8066,-5.8076,-5.8085,-5.8119,-5.8132,-5.7974,-5.7973,-5.7973,-5.7973,0,-5.7418,-5.7478,-5.7524,-5.7589,-5.763,-5.7693,-5.772,-5.7759,-5.7764,-5.7786,-5.7867,-5.7907,-5.7969,-5.7993,-5.7998,-5.8089,-5.8077,-5.8063,-5.8026,-5.8101,-5.8133,-5.8146,-5.7977,-5.7976,-5.7976,-5.7975,0,0,-5.7513,-5.759,-5.7606,-5.7636,-5.7696,-5.7742,-5.7807,-5.7869,-5.7901,-5.7949,-5.8003,-5.8086,-5.8073,-5.8108,-5.8118,-5.8161,-5.8239,-5.8141,-5.8142,-5.8156,-5.8341,-5.835,-5.8365,-5.8236,-5.8239,-5.8241,-5.8337,0,-5.7602,-5.7716,-5.7734,-5.7834,-5.789,-5.7891,-5.7948,-5.799,-5.8014,-5.8065,-5.8091,-5.8148,-5.8128,-5.8149,-5.8192,-5.822,-5.8276,-5.8214,-5.8286,-5.8288,-5.827,-5.8382,-5.8391,-5.8479,-5.8349,-5.8352,-5.8353,0,-5.7719,-5.7771,-5.7877,-5.793,-5.7954,-5.8004,-5.8063,-5.8112,-5.8162,-5.8176,-5.8217,-5.8222,-5.829,-5.8255,-5.8348,-5.8306,-5.8337,-5.8356,-5.836,-5.8364,-5.8322,-5.8387,-5.8507,-5.8519,-5.8373,-5.8372,-5.837,0,-5.7776,-5.7873,-5.7948,-5.7975,-5.8039,-5.8075,-5.8103,-5.815,-5.8187,-5.8239,-5.8262,-5.8322,-5.8353,-5.8399,-5.8421,-5.8393,-5.8513,-5.848,-5.8526,-5.8525,-5.8547,-5.8545,-5.8672,-5.8573,-5.8573,-5.8572,-5.8572,0,-5.7871,-5.7936,-5.7975,-5.8021,-5.8094,-5.8115,-5.8187,-5.8215,-5.8257,-5.8309,-5.8315,-5.8364,-5.8391,-5.8444,-5.8462,-5.8537,-5.8552,-5.8564,-5.8567,-5.8562,-5.856,-5.858,-5.8573,-5.8576,-5.8575,-5.8575,-5.8574,0,-5.7945,-5.7974,-5.8057,-5.8112,-5.8128,-5.8179,-5.8227,-5.8272,-5.8297,-5.8363,-5.838,-5.8418,-5.8481,-5.8509,-5.8586,-5.8598,-5.8683,-5.8683,-5.8666,-5.8666,-5.871,-5.8705,-5.8852,-5.8871,-5.8762,-5.8763,-5.8764,0,-5.8002,-5.8052,-5.8114,-5.8149,-5.8179,-5.8236,-5.8274,-5.8299,-5.8337,-5.8399,-5.8437,-5.8501,-5.8552,-5.8654,-5.8688,-5.8748,-5.8749,-5.8796,-5.8757,-5.875,-5.8747,-5.8742,-5.8747,-5.8802,-5.8803,-5.8804,-5.8805,0,-5.81,-5.8113,-5.8167,-5.8227,-5.8272,-5.832,-5.8368,-5.8397,-5.8429,-5.8473,-5.8537,-5.8578,-5.8658,-5.8721,-5.8784,-5.8814,-5.8814,-5.8817,-5.8831,-5.8824,-5.8811,-5.8816,-5.8682,-5.8813,-5.8812,-5.8811,-5.8811,-5.8811,-5.8166,-5.821,-5.8261,-5.8321,-5.836,-5.8405,-5.845,-5.8482,-5.8537,-5.8604,-5.8616,-5.8685,-5.8736,-5.882,-5.8853,-5.8907,-5.8895,-5.8915,-5.892,-5.8924,-5.8925,-5.8805,-5.8919,-5.8919,-5.8919,-5.8919,-5.8919,0,-5.8262,-5.8296,-5.8352,-5.8418,-5.8466,-5.8465,-5.8518,-5.8558,-5.8619,-5.8667,-5.8718,-5.8794,-5.8855,-5.8897,-5.896,-5.8996,-5.8998,-5.9011,-5.9007,-5.9014,-5.8933,-5.8914,-5.9008,-5.9008,-5.9008,-5.9008,-5.9008,-5.9008,-5.8318,-5.8393,-5.8412,-5.8507,-5.854,-5.8608,-5.8638,-5.868,-5.8718,-5.8802,-5.8854,-5.8881,-5.8926,-5.8993,-5.905,-5.9061,-5.9082,-5.9096,-5.9106,-5.9029,-5.9019,-5.901,-5.8992,-5.9101,-5.9101,-5.9181,-5.9182,-5.9183]},{"header":{"parameterUnit":"m.s-1","parameterCategory":1,"la1":30.2991,"la2":30.254,"lo1":-89.0895,"lo2":-89.0444,"dy":0.0017,"dx":0.0017,"nx":28,"ny":28,"refTime":"2024-04-28T03:00:00:Z","depth":0,"parameterNumber":3,"parameterNumberName":"V-component_of_WINDS"},"data":[0,0,0,0,0,0,0,0,0,0,0,0,0,0,0,0,0,0,0,0,0,0,0,0,0,0,0,0,0,0,0,0,0,0,0,0,0,0,0,0,0,0,0,0,0,0,0,0,0,0,0,0,0,0,0,0,0,0,5.7452,5.7452,0,5.7452,5.7451,5.7451,5.7457,5.7457,5.7457,5.7458,5.7451,5.7451,5.745,0,0,0,0,0,0,0,0,0,0,0,0,0,5.7456,5.7456,5.7452,5.7452,5.7452,5.7452,5.7451,5.7451,5.7457,5.7457,5.7457,5.7458,5.7451,5.7451,5.745,0,0,0,0,0,0,0,0,0,0,0,0,0,5.7454,5.7456,5.7452,5.7455,5.7456,5.7452,5.7451,5.7451,5.7457,5.7457,5.7458,5.7458,5.7451,5.7451,5.745,5.7442,0,0,5.7449,5.7448,0,0,0,0,0,0,0,0,5.7454,5.7454,5.7455,5.7455,5.7455,5.7455,5.745,5.7448,5.7457,5.7456,5.7458,5.7458,5.7452,5.7451,5.745,5.7441,5.7441,5.7449,5.7448,5.7448,5.7448,0,0,0,0,0,0,0,5.7454,5.7454,5.7452,5.7455,5.7455,5.7455,5.7456,5.745,5.7452,5.7456,5.7457,5.7457,5.7452,5.7451,5.745,5.7441,5.7449,5.7448,5.7448,5.7448,5.7427,5.7427,0,0,0,0,0,0,5.7455,5.7454,5.7452,5.7452,5.7456,5.7455,5.7455,5.7455,5.7452,5.7452,5.7457,5.7457,5.7451,5.7451,5.745,5.7441,5.7448,5.7448,5.7447,5.7428,5.7427,5.7427,0,0,0,0,0,0,5.7455,5.7455,5.7452,5.7453,5.7453,5.7455,5.7454,5.7454,5.7453,5.7453,5.7453,5.7455,5.7452,5.7451,5.7445,5.7441,5.7447,5.7447,5.7428,5.7428,5.7427,5.7423,0,0,0,0,0,0,5.7455,5.7454,5.7452,5.7453,5.7453,5.7448,5.7454,5.7454,5.7453,5.7454,5.7451,5.7451,5.7452,5.7445,5.7444,5.744,5.7447,5.7428,5.7428,5.7427,5.7423,5.7422,5.7422,0,0,0,0,0,5.7455,5.7449,5.7452,5.7451,5.745,5.7448,5.7447,5.7449,5.7453,5.745,5.745,5.7451,5.7442,5.7445,5.7443,5.7439,5.7428,5.7428,5.7427,5.7424,5.7423,5.7422,0,0,0,0,0,0,5.7444,5.7449,5.7452,5.7447,5.7447,5.7449,5.7445,5.7448,5.7446,5.7446,5.7447,5.7447,5.7441,5.7439,5.7443,5.7432,5.7436,5.7435,5.7433,5.7432,5.7431,5.7432,5.7446,0,0,0,0,0,5.7442,5.7441,5.7445,5.7439,5.744,5.7442,5.7441,5.7444,5.7443,5.7442,5.7442,5.744,5.7437,5.7434,5.7431,5.7424,5.7423,5.742,5.7419,5.7419,5.7418,5.7415,5.7414,5.7425,5.7425,5.7425,0,0,5.7436,5.7438,5.7437,5.7437,5.7438,5.7436,5.7442,5.7439,5.7438,5.7441,5.7437,5.7436,5.7434,5.7428,5.7425,5.7427,5.7415,5.7418,5.7418,5.7417,5.7415,5.7413,5.7413,5.7425,5.7425,5.7425,0,0,5.7424,5.7426,5.7423,5.7424,5.7426,5.7428,5.7427,5.7429,5.743,5.7426,5.7429,5.7427,5.7421,5.742,5.7418,5.741,5.7411,5.7409,5.7404,5.7401,5.74,5.74,5.7397,5.7396,5.7408,5.7408,5.7408,0,5.7416,5.7415,5.742,5.7418,5.7419,5.7425,5.7421,5.7422,5.7421,5.7421,5.7423,5.7418,5.7417,5.7411,5.741,5.7408,5.7407,5.7408,5.74,5.74,5.7399,5.7397,5.7396,5.7407,5.7407,5.7407,5.7408,0,5.7405,5.7404,5.7401,5.7404,5.7404,5.7401,5.7406,5.7405,5.7407,5.7409,5.7406,5.7405,5.7403,5.7402,5.7403,5.7397,5.7398,5.74,5.7404,5.7398,5.7395,5.7394,5.7407,5.7407,5.7407,5.7407,0,0,5.7384,5.7393,5.7392,5.7394,5.7398,5.7396,5.7394,5.7395,5.7394,5.7394,5.7392,5.7389,5.7392,5.7391,5.7392,5.739,5.7385,5.7393,5.7393,5.7392,5.7379,5.7377,5.7376,5.7386,5.7386,5.7386,5.7379,0,5.7374,5.7373,5.7379,5.7375,5.7375,5.7382,5.738,5.7382,5.7384,5.7383,5.7385,5.7383,5.7387,5.7386,5.7385,5.7386,5.7382,5.7386,5.7384,5.7383,5.7384,5.7375,5.7372,5.7366,5.7378,5.7378,5.7378,0,5.7361,5.7364,5.7361,5.7367,5.7367,5.7366,5.7368,5.7367,5.7369,5.7371,5.7371,5.7375,5.7372,5.7377,5.7374,5.7376,5.7376,5.7376,5.7376,5.7376,5.738,5.7374,5.7364,5.7363,5.7377,5.7377,5.7377,0,5.7347,5.735,5.7349,5.7351,5.7358,5.7357,5.7359,5.7362,5.7363,5.7364,5.7364,5.7364,5.7364,5.7364,5.7367,5.7369,5.7364,5.7368,5.7365,5.7365,5.7363,5.7363,5.7352,5.7362,5.7362,5.7362,5.7362,0,5.7335,5.7333,5.7344,5.7343,5.7342,5.7349,5.7346,5.7349,5.7352,5.7352,5.7357,5.7357,5.7361,5.736,5.7363,5.7361,5.736,5.7361,5.7362,5.7361,5.7361,5.736,5.736,5.7362,5.7362,5.7362,5.7362,0,5.7319,5.7326,5.7326,5.7334,5.7336,5.7335,5.7341,5.734,5.7344,5.7344,5.7344,5.7349,5.7349,5.7353,5.7352,5.7354,5.7351,5.7352,5.7351,5.7351,5.7348,5.7349,5.7337,5.7336,5.7347,5.7347,5.7347,0,5.7311,5.731,5.7319,5.732,5.7323,5.7325,5.7327,5.7333,5.7335,5.7339,5.7338,5.7339,5.734,5.734,5.7343,5.7344,5.7345,5.7341,5.7345,5.7344,5.7345,5.7346,5.7346,5.734,5.734,5.734,5.7339,0,5.7295,5.73,5.7302,5.7307,5.731,5.7313,5.7317,5.7317,5.7325,5.7326,5.7328,5.7329,5.7331,5.7332,5.7334,5.7335,5.7338,5.7339,5.7338,5.7337,5.7336,5.7337,5.7349,5.7338,5.7339,5.7339,5.7339,5.7339,5.7283,5.7283,5.7291,5.7294,5.7299,5.7303,5.7303,5.7309,5.7311,5.7314,5.7318,5.7319,5.7323,5.7326,5.7327,5.7328,5.733,5.7329,5.7329,5.7328,5.7328,5.7337,5.7328,5.7328,5.7328,5.7328,5.7328,0,5.7268,5.7274,5.7278,5.7284,5.7287,5.7293,5.7298,5.73,5.7302,5.7306,5.7308,5.7311,5.7312,5.7317,5.7319,5.7318,5.732,5.7319,5.7319,5.7319,5.7326,5.7327,5.7317,5.7317,5.7317,5.7318,5.7318,5.7318,5.7261,5.7263,5.7268,5.7273,5.7278,5.7281,5.7284,5.7287,5.7291,5.7294,5.7297,5.7301,5.7305,5.7308,5.731,5.7311,5.7311,5.731,5.7311,5.7317,5.7318,5.7319,5.732,5.731,5.731,5.7304,5.7304,5.7304]}]]